| time (UTC) | temp F | wind direction | speed MPH | gust MPH | rain 1hr in | rain 24hr in | rain mn in | humidity % | barometer mb |
| 20260506133033 | 46 | 34 | 2.0 | 9.0 | 0.04 | 0.76 | 0.58 | 96 | 1009.1 |
| 20260506131536 | 46 | 9 | 2.0 | 5.0 | 0.05 | 0.76 | 0.58 | 96 | 1008.9 |
| 20260506130030 | 46 | 5 | 0.0 | 5.0 | 0.05 | 0.76 | 0.58 | 96 | 1008.9 |
| 20260506124531 | 46 | 5 | 2.0 | 11.0 | 0.05 | 0.75 | 0.57 | 96 | 1009.1 |
| 20260506123030 | 46 | 336 | 4.0 | 9.0 | 0.04 | 0.72 | 0.54 | 96 | 1008.9 |
| 20260506121529 | 45 | 33 | 1.0 | 9.0 | 0.04 | 0.71 | 0.52 | 96 | 1008.1 |
| 20260506120029 | 45 | 27 | 2.0 | 9.0 | 0.05 | 0.71 | 0.52 | 96 | 1008.3 |
| 20260506114532 | 45 | 360 | 1.0 | 11.0 | 0.04 | 0.70 | 0.52 | 96 | 1008.0 |
| 20260506113032 | 46 | 360 | 4.0 | 11.0 | 0.02 | 0.68 | 0.50 | 96 | 1008.5 |
| 20260506111531 | 46 | 5 | 2.0 | 13.0 | 0.02 | 0.67 | 0.49 | 96 | 1007.8 |
| 20260506110029 | 47 | 5 | 2.0 | 7.0 | 0.02 | 0.66 | 0.48 | 96 | 1007.2 |
| 20260506104527 | 47 | 46 | 1.0 | 8.0 | 0.03 | 0.66 | 0.48 | 96 | 1006.6 |
| 20260506103028 | 47 | 52 | 1.0 | 8.0 | 0.06 | 0.66 | 0.48 | 96 | 1006.6 |
| 20260506101528 | 47 | 344 | 3.0 | 13.0 | 0.09 | 0.65 | 0.47 | 96 | 1007.2 |
| 20260506100034 | 47 | 13 | 7.0 | 16.0 | 0.09 | 0.64 | 0.46 | 96 | 1007.1 |
| 20260506094530 | 48 | 347 | 5.0 | 13.0 | 0.08 | 0.63 | 0.45 | 96 | 1007.1 |
| 20260506093030 | 49 | 31 | 3.0 | 10.0 | 0.07 | 0.60 | 0.42 | 96 | 1006.7 |
| 20260506091530 | 49 | 17 | 3.0 | 11.0 | 0.08 | 0.56 | 0.38 | 96 | 1006.7 |
| 20260506090027 | 49 | 35 | 2.0 | 8.0 | 0.11 | 0.55 | 0.37 | 96 | 1006.3 |
| 20260506084536 | 49 | 0 | 0.0 | 9.0 | 0.14 | 0.54 | 0.36 | 96 | 1006.3 |
| 20260506083032 | 50 | 15 | 3.0 | 9.0 | 0.15 | 0.52 | 0.34 | 96 | 1006.1 |
| 20260506081528 | 50 | 25 | 2.0 | 6.0 | 0.15 | 0.48 | 0.30 | 96 | 1006.0 |
| 20260506073029 | 53 | 60 | 1.0 | 8.0 | 0.06 | 0.37 | 0.19 | 95 | 1005.9 |
| 20260506071530 | 57 | 48 | 3.0 | 7.0 | 0.03 | 0.33 | 0.15 | 96 | 1006.0 |
| 20260506061531 | 57 | 229 | 3.0 | 6.0 | 0.03 | 0.30 | 0.12 | 96 | 1006.6 |
| 20260506044531 | 57 | 194 | 3.0 | 6.0 | 0.06 | 0.22 | 0.04 | 96 | 1007.8 |
| 20260506043028 | 58 | 196 | 2.0 | 4.0 | 0.06 | 0.20 | 0.02 | 96 | 1007.9 |
| 20260506041544 | 58 | 0 | 2.0 | 4.0 | 0.05 | 0.19 | 0.01 | 96 | 1008.0 |
| 20260506040033 | 58 | 292 | 1.0 | 3.0 | 0.05 | 0.18 | 0.00 | 96 | 1008.1 |
| 20260506034543 | 58 | 292 | 1.0 | 4.0 | 0.04 | 0.16 | 0.16 | 96 | 1008.2 |
| 20260506033029 | 57 | 0 | 0.0 | 5.0 | 0.02 | 0.14 | 0.14 | 96 | 1008.3 |
| 20260506031529 | 57 | 346 | 1.0 | 6.0 | 0.04 | 0.14 | 0.14 | 95 | 1008.1 |
| 20260506030028 | 57 | 338 | 0.0 | 4.0 | 0.03 | 0.13 | 0.13 | 96 | 1008.3 |
| 20260506024529 | 58 | 0 | 0.0 | 2.0 | 0.03 | 0.12 | 0.12 | 95 | 1008.7 |
| 20260506023030 | 58 | 256 | 0.0 | 3.0 | 0.03 | 0.12 | 0.12 | 95 | 1008.8 |
| 20260506021529 | 58 | 284 | 0.0 | 1.0 | 0.01 | 0.10 | 0.10 | 95 | 1008.5 |
| 20260506020028 | 58 | 0 | 0.0 | 1.0 | 0.04 | 0.10 | 0.10 | 94 | 1008.2 |
| 20260506014528 | 58 | 0 | 0.0 | 4.0 | 0.05 | 0.09 | 0.09 | 94 | 1008.1 |
| 20260506013041 | 58 | 292 | 1.0 | 5.0 | 0.05 | 0.09 | 0.09 | 93 | 1008.2 |
| 20260506011531 | 57 | 318 | 4.0 | 12.0 | 0.06 | 0.09 | 0.09 | 93 | 1008.5 |
| 20260506010032 | 58 | 279 | 3.0 | 8.0 | 0.06 | 0.06 | 0.06 | 92 | 1008.4 |
| 20260506004527 | 58 | 336 | 2.0 | 8.0 | 0.04 | 0.04 | 0.04 | 90 | 1008.0 |
| 20260506003030 | 59 | 355 | 4.0 | 16.0 | 0.04 | 0.04 | 0.04 | 85 | 1007.9 |
| 20260506001529 | 67 | 334 | 12.0 | 28.0 | 0.02 | 0.02 | 0.02 | 66 | 1008.0 |
| 20260506000029 | 69 | 210 | 11.0 | 19.0 | 0.00 | 0.00 | 0.00 | 58 | 1007.4 |
| 20260505234529 | 69 | 223 | 13.0 | 18.0 | 0.00 | 0.00 | 0.00 | 57 | 1007.2 |
| 20260505233030 | 69 | 228 | 13.0 | 22.0 | 0.00 | 0.00 | 0.00 | 57 | 1007.3 |
| 20260505231531 | 69 | 260 | 8.0 | 19.0 | 0.00 | 0.00 | 0.00 | 57 | 1007.2 |
| 20260505230041 | 69 | 257 | 8.0 | 26.0 | 0.00 | 0.00 | 0.00 | 58 | 1007.4 |
| 20260505224530 | 69 | 250 | 8.0 | 13.0 | 0.00 | 0.00 | 0.00 | 59 | 1007.4 |
| 20260505223039 | 69 | 238 | 7.0 | 12.0 | 0.00 | 0.00 | 0.00 | 59 | 1007.5 |
| 20260505221534 | 70 | 201 | 7.0 | 17.0 | 0.00 | 0.00 | 0.00 | 58 | 1007.4 |
| 20260505220047 | 70 | 254 | 11.0 | 17.0 | 0.00 | 0.00 | 0.00 | 58 | 1007.6 |
| 20260505214535 | 70 | 265 | 14.0 | 25.0 | 0.00 | 0.00 | 0.00 | 58 | 1007.5 |
| 20260505213033 | 70 | 244 | 9.0 | 18.0 | 0.00 | 0.00 | 0.00 | 57 | 1007.6 |
| 20260505211531 | 70 | 240 | 12.0 | 28.0 | 0.00 | 0.00 | 0.00 | 57 | 1007.7 |
| 20260505210035 | 70 | 223 | 15.0 | 25.0 | 0.00 | 0.00 | 0.00 | 57 | 1007.8 |
| 20260505204530 | 70 | 238 | 16.0 | 24.0 | 0.00 | 0.00 | 0.00 | 56 | 1007.9 |
| 20260505203029 | 70 | 260 | 16.0 | 29.0 | 0.00 | 0.00 | 0.00 | 58 | 1008.0 |
| 20260505201532 | 70 | 223 | 10.0 | 21.0 | 0.00 | 0.00 | 0.00 | 59 | 1007.9 |
| 20260505200039 | 70 | 262 | 14.0 | 25.0 | 0.00 | 0.00 | 0.00 | 59 | 1008.0 |
| 20260505194530 | 69 | 243 | 11.0 | 16.0 | 0.00 | 0.00 | 0.00 | 58 | 1008.0 |
| 20260505193034 | 69 | 248 | 7.0 | 12.0 | 0.00 | 0.00 | 0.00 | 59 | 1008.1 |
| 20260505191537 | 69 | 240 | 7.0 | 14.0 | 0.00 | 0.00 | 0.00 | 58 | 1008.3 |
| 20260505190030 | 69 | 254 | 7.0 | 15.0 | 0.00 | 0.00 | 0.00 | 57 | 1008.5 |
| 20260505184530 | 70 | 232 | 8.0 | 17.0 | 0.00 | 0.00 | 0.00 | 57 | 1008.6 |
| 20260505183036 | 70 | 271 | 6.0 | 16.0 | 0.00 | 0.00 | 0.00 | 56 | 1008.6 |
| 20260505181529 | 70 | 252 | 8.0 | 17.0 | 0.00 | 0.00 | 0.00 | 58 | 1008.7 |
| 20260505180029 | 69 | 227 | 12.0 | 21.0 | 0.00 | 0.00 | 0.00 | 58 | 1008.7 |
| 20260505174530 | 70 | 289 | 14.0 | 27.0 | 0.00 | 0.00 | 0.00 | 56 | 1008.7 |
| 20260505173032 | 70 | 259 | 15.0 | 24.0 | 0.00 | 0.00 | 0.00 | 55 | 1008.7 |
| 20260505171532 | 70 | 265 | 15.0 | 32.0 | 0.00 | 0.00 | 0.00 | 54 | 1008.8 |
| 20260505170031 | 70 | 265 | 16.0 | 28.0 | 0.00 | 0.00 | 0.00 | 55 | 1008.9 |
| 20260505164530 | 68 | 211 | 14.0 | 22.0 | 0.00 | 0.00 | 0.00 | 59 | 1008.8 |
| 20260505163032 | 68 | 252 | 16.0 | 27.0 | 0.00 | 0.00 | 0.00 | 57 | 1008.5 |
| 20260505161540 | 70 | 240 | 12.0 | 23.0 | 0.00 | 0.00 | 0.00 | 55 | 1008.1 |
| 20260505153030 | 69 | 244 | 17.0 | 26.0 | 0.00 | 0.00 | 0.00 | 57 | 1008.4 |
| 20260505151529 | 68 | 265 | 13.0 | 33.0 | 0.00 | 0.00 | 0.00 | 58 | 1008.3 |